DW5920 Weather Reports


time (UTC)temp
C
wind
direction
speed
KPH
gust
KPH
rain 1hr
cm
rain 24hr
cm
rain mn
cm
humidity
%
barometer
mb
20260503202703 17 246 1.6 6.4 0.00 0.00 0.00 73 1013.1
20260503201803 17 254 0.0 8.0 0.00 0.00 0.00 72 1012.9
20260503200903 17 254 0.0 9.7 0.00 0.00 0.00 71 1012.9
20260503200003 17 258 1.6 12.9 0.00 0.00 0.00 70 1012.7
20260503195403 18 259 1.6 12.9 0.00 0.00 0.00 70 1012.5
20260503194503 18 265 0.0 9.7 0.00 0.00 0.00 69 1012.4
20260503193603 18 263 1.6 11.3 0.00 0.00 0.00 67 1012.3
20260503192703 18 260 3.2 9.7 0.00 0.00 0.00 66 1012.2
20260503191803 18 260 1.6 12.9 0.00 0.00 0.00 65 1012.1
20260503191121 19 259 3.2 17.7 0.00 0.00 0.00 64 1012.1
20260503190004 19 263 3.2 16.1 0.00 0.00 0.00 62 1012.1
20260503185403 20 274 3.2 17.7 0.00 0.00 0.00 61 1012.0
20260503184503 20 279 4.8 17.7 0.00 0.00 0.00 60 1011.9
20260503183819 20 278 4.8 14.5 0.00 0.00 0.00 58 1011.9
20260503182703 20 275 4.8 17.7 0.00 0.00 0.00 57 1011.8
20260503182019 20 278 6.4 17.7 0.00 0.00 0.00 57 1011.7
20260503180903 21 272 4.8 17.7 0.00 0.00 0.00 56 1011.6
20260503180219 21 265 6.4 19.3 0.00 0.00 0.00 55 1011.6
20260503175403 22 256 8.0 25.7 0.00 0.00 0.00 53 1011.6
20260503174503 22 258 6.4 25.7 0.00 0.00 0.00 53 1011.6
20260503173820 22 261 6.4 22.5 0.00 0.00 0.00 53 1011.5
20260503172703 22 250 8.0 22.5 0.00 0.00 0.00 53 1011.5
20260503171803 22 256 8.0 20.9 0.00 0.00 0.00 50 1011.4
20260503171117 22 254 8.0 22.5 0.00 0.00 0.00 49 1011.5
20260503150903 25 262 8.0 24.1 0.00 0.00 0.00 42 1011.6
20260503130903 24 269 8.0 25.7 0.00 0.00 0.00 48 1012.5
20260503080903 18 284 1.6 3.2 0.00 0.00 0.00 84 1014.1
20260503080220 18 293 0.0 3.2 0.00 0.00 0.00 83 1014.1
20260503072703 17 316 0.0 3.2 0.00 0.00 0.00 88 1013.8
20260503071803 17 287 1.6 4.8 0.00 0.00 0.00 88 1013.9
20260503071118 17 303 1.6 4.8 0.00 0.00 0.00 88 1013.9
20260503060221 16 275 0.0 1.6 0.00 0.00 0.00 92 1013.6
20260503054503 16 236 0.0 3.2 0.00 0.00 0.00 91 1013.6
20260503053817 16 0 0.0 0.0 0.00 0.00 0.00 91 1013.4
20260503052703 16 0 0.0 0.0 0.00 0.00 0.00 91 1013.4
20260503051803 16 0 0.0 0.0 0.00 0.00 0.00 91 1013.3
20260503051119 16 0 0.0 0.0 0.00 0.00 0.00 91 1013.2
20260503050003 16 0 0.0 0.0 0.00 0.00 0.00 90 1013.2
20260503045618 16 0 0.0 0.0 0.00 0.00 0.00 90 1013.3
20260503044503 16 324 0.0 1.6 0.00 0.00 0.00 89 1013.3
20260503043818 16 0 0.0 0.0 0.00 0.00 0.00 89 1013.3
20260503042703 16 0 0.0 0.0 0.00 0.00 0.00 89 1013.3
20260503041803 16 0 0.0 1.6 0.00 0.00 0.00 89 1013.3
20260503041120 16 0 0.0 0.0 0.00 0.00 0.00 89 1013.3
20260503040217 16 0 0.0 0.0 0.00 0.00 0.00 89 1013.3
20260503035403 16 0 0.0 0.0 0.00 0.00 0.00 89 1013.4
20260503034503 16 0 0.0 0.0 0.00 0.00 0.00 89 1013.5
20260503033603 16 91 0.0 1.6 0.00 0.00 0.00 90 1013.4
20260503032703 16 0 0.0 0.0 0.00 0.00 0.00 89 1013.4
20260503031803 16 0 0.0 0.0 0.00 0.00 0.00 89 1013.6
20260503030903 16 0 0.0 0.0 0.00 0.00 0.00 89 1013.6
20260503030003 16 0 0.0 0.0 0.00 0.00 0.00 89 1013.7
20260503025403 16 0 0.0 0.0 0.00 0.00 0.00 90 1013.7
20260503024503 16 0 0.0 1.6 0.00 0.00 0.00 90 1013.7
20260503023603 16 0 0.0 0.0 0.00 0.00 0.00 89 1013.7
20260503022703 16 0 0.0 0.0 0.00 0.00 0.00 89 1013.7
20260503021803 16 0 0.0 0.0 0.00 0.00 0.00 88 1013.7
20260503020903 16 0 0.0 0.0 0.00 0.00 0.00 88 1013.7
20260503020003 16 197 0.0 1.6 0.00 0.00 0.00 88 1013.9
20260503015403 16 0 0.0 0.0 0.00 0.00 0.00 88 1013.9
20260503014718 16 0 0.0 0.0 0.00 0.00 0.00 88 1014.0
20260503013603 16 0 0.0 0.0 0.00 0.00 0.00 87 1014.0
20260503012703 16 0 0.0 0.0 0.00 0.00 0.00 87 1014.1
20260503011803 16 0 0.0 0.0 0.00 0.00 0.00 87 1014.3
20260503010903 16 0 0.0 0.0 0.00 0.00 0.00 86 1014.4
20260503010003 16 0 0.0 0.0 0.00 0.00 0.00 86 1014.5
20260503005403 16 0 0.0 0.0 0.00 0.00 0.00 86 1014.6
20260503004503 16 0 0.0 0.0 0.00 0.00 0.00 85 1014.7
20260503003603 16 0 0.0 0.0 0.00 0.00 0.00 85 1014.7
20260503002703 16 0 0.0 0.0 0.00 0.00 0.00 84 1014.7
20260503001803 16 0 0.0 0.0 0.00 0.00 0.00 83 1014.8
20260503000903 16 160 0.0 3.2 0.00 0.00 0.00 83 1014.9
20260503000003 16 0 0.0 0.0 0.00 0.00 0.00 82 1014.9
20260502235403 16 0 0.0 0.0 0.00 0.00 0.00 82 1014.9
20260502234719 16 231 0.0 1.6 0.00 0.00 0.00 81 1014.9
20260502233603 17 219 0.0 1.6 0.00 0.00 0.00 81 1015.0
20260502232703 17 214 0.0 1.6 0.00 0.00 0.00 80 1015.0
20260502232021 17 248 0.0 4.8 0.00 0.00 0.00 80 1015.0
20260502230903 17 0 0.0 0.0 0.00 0.00 0.00 80 1015.1
20260502230003 17 251 0.0 6.4 0.00 0.00 0.00 80 1015.0
20260502225403 17 255 0.0 4.8 0.00 0.00 0.00 79 1015.0
20260502224503 17 280 0.0 3.2 0.00 0.00 0.00 79 1015.0
20260502223603 17 256 0.0 9.7 0.00 0.00 0.00 79 1014.8
20260502222919 17 255 0.0 9.7 0.00 0.00 0.00 79 1014.8
20260502221803 17 257 0.0 1.6 0.00 0.00 0.00 79 1014.9
20260502221119 17 257 0.0 1.6 0.00 0.00 0.00 79 1014.9
20260502220221 18 0 0.0 0.0 0.00 0.00 0.00 79 1014.8
20260502215403 18 0 0.0 0.0 0.00 0.00 0.00 79 1014.8
20260502214720 18 0 0.0 0.0 0.00 0.00 0.00 78 1014.9
20260502213603 18 0 0.0 0.0 0.00 0.00 0.00 78 1014.9
20260502212703 18 0 0.0 0.0 0.00 0.00 0.00 78 1014.8
20260502211803 18 0 0.0 0.0 0.00 0.00 0.00 78 1014.7
20260502210903 18 226 0.0 3.2 0.00 0.00 0.00 78 1014.6
20260502210003 18 0 0.0 0.0 0.00 0.00 0.00 77 1014.5
20260502205403 18 0 0.0 0.0 0.00 0.00 0.00 76 1014.5
20260502204503 19 0 0.0 0.0 0.00 0.00 0.00 76 1014.4
20260502203818 19 0 0.0 0.0 0.00 0.00 0.00 76 1014.4